Location: Innerarity Island Observatory
(30.3139°N, 87.4867°W)
Time: 12:28:30
(UTC-05:00)

JAS-2 - Visible Passes

Search period start: 16 September 2014 00:00
Search period end: 26 September 2014 00:00
Orbit: 800 x 1322 km, 98.5° (Epoch: 16 September)

Date Brightness Start Highest point End Pass type
(mag) Time Alt. Az. Time Alt. Az. Time Alt. Az.
17 Sep 11.9 05:47:22 10° NE 05:52:40 29° E 05:58:28 10° SSE visible
17 Sep 12.4 19:26:48 10° SW 19:29:30 14° W 19:32:09 10° WNW visible
19 Sep 12.0 05:42:31 10° NE 05:47:48 27° E 05:53:33 10° SSE visible
19 Sep 12.3 19:21:31 10° SW 19:24:32 15° W 19:27:30 10° WNW visible
21 Sep 12.1 05:37:41 10° NE 05:42:56 26° E 05:48:37 10° SSE visible
21 Sep 12.2 19:16:17 10° SW 19:19:34 17° W 19:22:48 10° WNW visible
23 Sep 12.2 05:32:53 10° NE 05:38:05 24° E 05:43:41 10° SSE visible
23 Sep 12.2 19:11:04 10° SW 19:14:36 18° W 19:18:05 10° NW visible
25 Sep 12.3 05:28:06 10° NE 05:33:14 23° E 05:38:44 10° SE visible
25 Sep 12.1 19:05:52 10° SW 19:09:37 20° W 19:13:21 10° NW visible
